Location: Arran
(51.9410°N, 101.7372°W)
Time: 07:14:45
(UTC+00:00)

SWISSCUBE - Pass Details

Date: 15 May 2025
Orbit: 685 x 693 km, 98.4° (Epoch: 20 June)

Event Time Altitude Azimuth Distance (km) Brightness Sun altitude
Rises 04:18:34 0° 29° (NNE) 3,075 ? -12.4°
Reaches altitude 10° 04:21:54 10° 55° (NE) 2,153 ? -12.7°
Maximum altitude 04:24:25 14° 87° (E) 1,877 ? -12.9°
Enters shadow 04:25:59 12° 109° (ESE) 1,988 ? -13.1°
